[[{"header":{"parameterUnit":"m.s-1","parameterCategory":1,"la1":30.2991,"la2":30.254,"lo1":-89.0895,"lo2":-89.0444,"dy":0.0017,"dx":0.0017,"nx":28,"ny":28,"refTime":"2025-03-15T21:00:00:Z","depth":0,"parameterNumber":2,"parameterNumberName":"U-component_of_WINDS"},"data":[0,0,0,0,0,0,0,0,0,0,0,0,0,0,0,0,0,0,0,0,0,0,0,0,0,0,0,0,0,0,0,0,0,0,0,0,0,0,0,0,0,0,0,0,0,0,0,0,0,0,0,0,0,0,0,0,0,0,0.3946,0.3946,0,0.3969,0.3969,0.3969,0.3974,0.3974,0.3974,0.3974,0.3996,0.3996,0.3997,0,0,0,0,0,0,0,0,0,0,0,0,0,0.3907,0.3907,0.3946,0.3946,0.3947,0.3969,0.3969,0.3969,0.3974,0.3974,0.3974,0.3974,0.3995,0.3996,0.3997,0,0,0,0,0,0,0,0,0,0,0,0,0,0.3926,0.3908,0.3946,0.3952,0.3953,0.3968,0.3969,0.3969,0.3974,0.3974,0.3974,0.3974,0.3995,0.3996,0.3997,0.4009,0,0,0.4001,0.4001,0,0,0,0,0,0,0,0,0.3925,0.3927,0.3951,0.3951,0.3952,0.3968,0.3963,0.3982,0.3974,0.3966,0.3974,0.3973,0.3987,0.3988,0.3993,0.401,0.4011,0.4001,0.4001,0.4002,0.4002,0,0,0,0,0,0,0,0.3923,0.3926,0.3955,0.3951,0.3952,0.3953,0.3955,0.3967,0.3977,0.3967,0.3967,0.397,0.3987,0.3992,0.3994,0.4011,0.4001,0.4002,0.4002,0.4003,0.4038,0.4038,0,0,0,0,0,0,0.3921,0.3925,0.3954,0.3956,0.3938,0.3954,0.3957,0.3963,0.3977,0.3979,0.397,0.397,0.399,0.3992,0.3995,0.4009,0.4002,0.4003,0.4004,0.4037,0.4038,0.4038,0,0,0,0,0,0,0.392,0.3924,0.3953,0.3941,0.3944,0.3955,0.3962,0.3964,0.3969,0.398,0.3982,0.3973,0.399,0.3993,0.4005,0.4009,0.4003,0.4004,0.4037,0.4038,0.4038,0.4037,0,0,0,0,0,0,0.3919,0.3923,0.3928,0.3941,0.3945,0.3964,0.3963,0.3965,0.3971,0.3971,0.3983,0.3985,0.399,0.4003,0.4006,0.4011,0.4005,0.4037,0.4037,0.4038,0.4036,0.4037,0.4038,0,0,0,0,0,0.3918,0.3927,0.3928,0.3932,0.3951,0.3964,0.3967,0.3973,0.3971,0.3976,0.3983,0.3985,0.4009,0.4005,0.4008,0.4013,0.4037,0.4037,0.4038,0.4036,0.4037,0.4038,0,0,0,0,0,0,0.3914,0.3928,0.393,0.3944,0.3953,0.3965,0.3971,0.3973,0.3983,0.3983,0.399,0.3992,0.4004,0.401,0.4005,0.4024,0.4022,0.4024,0.402,0.4021,0.4022,0.402,0.4006,0,0,0,0,0,0.3915,0.3924,0.3936,0.3947,0.3951,0.396,0.3966,0.397,0.398,0.3983,0.3991,0.4,0.401,0.4016,0.4025,0.4037,0.404,0.4042,0.4043,0.4043,0.4044,0.4051,0.4052,0.404,0.404,0.404,0,0,0.3916,0.3925,0.3931,0.3946,0.3954,0.3963,0.3963,0.3973,0.398,0.3985,0.3997,0.4003,0.4013,0.4025,0.4031,0.4031,0.4048,0.4044,0.4044,0.4045,0.4052,0.4053,0.4054,0.404,0.404,0.404,0,0,0.3924,0.3932,0.3941,0.3949,0.396,0.3966,0.3969,0.3981,0.3985,0.3997,0.4001,0.4009,0.4025,0.4032,0.4038,0.4048,0.405,0.4051,0.4054,0.4061,0.4061,0.4062,0.4066,0.4067,0.4052,0.4052,0.4052,0,0.3924,0.3939,0.3946,0.3956,0.3962,0.3967,0.3977,0.3984,0.3997,0.4001,0.4001,0.4021,0.4029,0.4042,0.4045,0.405,0.4052,0.405,0.4061,0.4062,0.4063,0.4066,0.4067,0.4052,0.4052,0.4052,0.4052,0,0.3938,0.3949,0.3955,0.3968,0.3976,0.3985,0.3993,0.4,0.4003,0.4009,0.4022,0.4031,0.4042,0.4046,0.4049,0.406,0.4059,0.406,0.4058,0.4064,0.4067,0.4068,0.4052,0.4052,0.4052,0.4052,0,0,0.3944,0.3961,0.3963,0.3969,0.3983,0.399,0.4,0.4011,0.4017,0.4026,0.4034,0.4048,0.4048,0.4055,0.4059,0.4065,0.4072,0.4065,0.4065,0.4065,0.4085,0.4084,0.4085,0.4074,0.4074,0.4074,0.4084,0,0.3953,0.3971,0.3977,0.3992,0.4001,0.4006,0.4014,0.4023,0.4029,0.4037,0.4044,0.4053,0.4053,0.4057,0.4063,0.407,0.4076,0.407,0.4081,0.4081,0.4078,0.4087,0.4086,0.4095,0.4085,0.4085,0.4085,0,0.3965,0.3975,0.3991,0.4002,0.4007,0.4014,0.4025,0.4033,0.4043,0.4047,0.4054,0.4058,0.4068,0.4066,0.408,0.4075,0.4081,0.4085,0.4085,0.4086,0.4083,0.4088,0.4097,0.4098,0.4087,0.4087,0.4087,0,0.3967,0.3984,0.3996,0.4001,0.4015,0.402,0.4026,0.4036,0.4042,0.4052,0.4056,0.4066,0.4072,0.408,0.4086,0.4084,0.4099,0.4098,0.4102,0.4102,0.4105,0.4104,0.4115,0.4109,0.4109,0.4109,0.4109,0,0.3976,0.3985,0.3997,0.4004,0.4014,0.4022,0.4032,0.4038,0.4047,0.4055,0.406,0.4067,0.4075,0.4084,0.4089,0.4099,0.4102,0.4105,0.4106,0.4104,0.4104,0.4107,0.4107,0.4109,0.4109,0.4109,0.4109,0,0.398,0.3988,0.4001,0.4013,0.4016,0.4024,0.4034,0.4041,0.4047,0.4057,0.406,0.407,0.408,0.4087,0.41,0.4104,0.4115,0.4116,0.4112,0.4112,0.4116,0.4116,0.4129,0.4131,0.4124,0.4124,0.4124,0,0.3985,0.3992,0.4005,0.4011,0.4017,0.4027,0.4033,0.4041,0.4048,0.406,0.4065,0.4075,0.4084,0.41,0.4108,0.4118,0.412,0.4124,0.4121,0.4119,0.4119,0.4119,0.4119,0.4124,0.4124,0.4124,0.4124,0,0.3992,0.3996,0.4006,0.4016,0.4024,0.4033,0.4042,0.4047,0.4056,0.4063,0.4074,0.408,0.4094,0.4104,0.4115,0.4121,0.4124,0.4125,0.4126,0.4124,0.4121,0.4123,0.4112,0.4124,0.4124,0.4124,0.4124,0.4124,0.3997,0.4003,0.4014,0.4024,0.4032,0.404,0.4047,0.4054,0.4063,0.4075,0.4079,0.409,0.4099,0.4114,0.412,0.4129,0.4129,0.4131,0.4131,0.4132,0.4132,0.412,0.4131,0.4131,0.4131,0.4131,0.4131,0,0.4004,0.4011,0.4021,0.4033,0.4041,0.4044,0.4054,0.406,0.407,0.4079,0.4088,0.41,0.411,0.4119,0.4129,0.4134,0.4136,0.4137,0.4136,0.4137,0.4131,0.4129,0.4135,0.4135,0.4135,0.4135,0.4135,0.4135,0.4009,0.4021,0.4026,0.404,0.4047,0.4058,0.4064,0.4071,0.4079,0.4092,0.41,0.4106,0.4115,0.4126,0.4135,0.4138,0.4141,0.4142,0.4144,0.4138,0.4138,0.4137,0.4135,0.4142,0.4142,0.4149,0.415,0.415]},{"header":{"parameterUnit":"m.s-1","parameterCategory":1,"la1":30.2991,"la2":30.254,"lo1":-89.0895,"lo2":-89.0444,"dy":0.0017,"dx":0.0017,"nx":28,"ny":28,"refTime":"2025-03-15T21:00:00:Z","depth":0,"parameterNumber":3,"parameterNumberName":"V-component_of_WINDS"},"data":[0,0,0,0,0,0,0,0,0,0,0,0,0,0,0,0,0,0,0,0,0,0,0,0,0,0,0,0,0,0,0,0,0,0,0,0,0,0,0,0,0,0,0,0,0,0,0,0,0,0,0,0,0,0,0,0,0,0,-4.9407,-4.9408,0,-4.9538,-4.9539,-4.9541,-4.9539,-4.9537,-4.9536,-4.9534,-4.9665,-4.967,-4.9675,0,0,0,0,0,0,0,0,0,0,0,0,0,-4.9154,-4.9158,-4.9406,-4.9408,-4.941,-4.9537,-4.9539,-4.9541,-4.9539,-4.9537,-4.9535,-4.9533,-4.9663,-4.9669,-4.9676,0,0,0,0,0,0,0,0,0,0,0,0,0,-4.9272,-4.916,-4.9406,-4.9424,-4.9427,-4.9537,-4.9539,-4.9541,-4.954,-4.9537,-4.9535,-4.9532,-4.9661,-4.9669,-4.9676,-4.9776,0,0,-4.97,-4.9703,0,0,0,0,0,0,0,0,-4.9265,-4.9281,-4.942,-4.9423,-4.9427,-4.9519,-4.9498,-4.962,-4.954,-4.9497,-4.9534,-4.9531,-4.9619,-4.963,-4.966,-4.9782,-4.9787,-4.97,-4.9705,-4.9708,-4.9711,0,0,0,0,0,0,0,-4.9257,-4.9275,-4.9458,-4.9422,-4.9426,-4.9426,-4.944,-4.9521,-4.9571,-4.9501,-4.9501,-4.9517,-4.962,-4.9652,-4.9663,-4.9789,-4.97,-4.9707,-4.9712,-4.9715,-5.0003,-5.0005,0,0,0,0,0,0,-4.9245,-4.9269,-4.9454,-4.9462,-4.9338,-4.9432,-4.9448,-4.9492,-4.957,-4.9579,-4.9519,-4.9516,-4.9641,-4.9654,-4.9667,-4.9791,-4.9708,-4.9715,-4.972,-5.0,-5.0003,-5.0006,0,0,0,0,0,0,-4.924,-4.9262,-4.9449,-4.9366,-4.9389,-4.944,-4.9489,-4.9496,-4.9529,-4.9583,-4.9592,-4.9543,-4.9639,-4.9657,-4.975,-4.9796,-4.9719,-4.9726,-4.9996,-5.0001,-5.0005,-5.0038,0,0,0,0,0,0,-4.9233,-4.926,-4.9298,-4.9367,-4.9394,-4.9529,-4.9492,-4.9501,-4.9542,-4.954,-4.9608,-4.9617,-4.9638,-4.9738,-4.9757,-4.9805,-4.9732,-4.9992,-4.9998,-5.0003,-5.0033,-5.0043,-5.0052,0,0,0,0,0,-4.9224,-4.9301,-4.93,-4.9323,-4.9443,-4.9532,-4.9548,-4.9571,-4.9546,-4.9585,-4.9621,-4.9615,-4.9787,-4.9748,-4.9769,-4.982,-4.9989,-4.9996,-5.0003,-5.0029,-5.0041,-5.0052,0,0,0,0,0,0,-4.9235,-4.931,-4.931,-4.9412,-4.9466,-4.9532,-4.9581,-4.9583,-4.9644,-4.9639,-4.9665,-4.9681,-4.9774,-4.9806,-4.9761,-4.9921,-4.9885,-4.9897,-4.9897,-4.991,-4.9919,-4.991,-4.9738,0,0,0,0,0,-4.9249,-4.9316,-4.9378,-4.9462,-4.9489,-4.9531,-4.957,-4.9584,-4.964,-4.9663,-4.9705,-4.9759,-4.9826,-4.9869,-4.9933,-5.0037,-5.0053,-5.0083,-5.0092,-5.0099,-5.0109,-5.017,-5.0184,-5.0029,-5.0029,-5.0029,0,0,-4.9279,-4.9329,-4.9369,-4.9465,-4.9509,-4.9578,-4.955,-4.9623,-4.9674,-4.9673,-4.9765,-4.9798,-4.986,-4.996,-5.0006,-4.999,-5.0156,-5.0108,-5.0114,-5.012,-5.0178,-5.0193,-5.0206,-5.0034,-5.0033,-5.0032,0,0,-4.937,-4.9414,-4.949,-4.9535,-4.9602,-4.9629,-4.9648,-4.9714,-4.9737,-4.9829,-4.9831,-4.9892,-5.0006,-5.0051,-5.0089,-5.02,-5.0198,-5.022,-5.027,-5.0328,-5.034,-5.0351,-5.0393,-5.0408,-5.023,-5.023,-5.023,0,-4.9399,-4.9504,-4.9528,-4.9604,-4.9646,-4.9651,-4.9729,-4.9771,-4.9854,-4.9884,-4.9864,-5.0009,-5.0051,-5.0163,-5.0191,-5.022,-5.0243,-5.0213,-5.0337,-5.0348,-5.0359,-5.0399,-5.0414,-5.0232,-5.0232,-5.0232,-5.0231,0,-4.9537,-4.961,-4.9663,-4.9747,-4.9796,-4.9871,-4.9908,-4.9954,-4.9964,-4.9994,-5.009,-5.014,-5.0216,-5.0244,-5.0253,-5.0358,-5.0346,-5.0331,-5.0296,-5.0375,-5.0414,-5.0429,-5.0236,-5.0235,-5.0234,-5.0233,0,0,-4.9638,-4.9737,-4.9756,-4.9795,-4.9871,-4.9927,-5.0003,-5.0079,-5.012,-5.0177,-5.0243,-5.0341,-5.0329,-5.0372,-5.0386,-5.0437,-5.0526,-5.0417,-5.0419,-5.0437,-5.0647,-5.066,-5.0677,-5.0524,-5.0527,-5.053,-5.0643,0,-4.9739,-4.9876,-4.9902,-5.0022,-5.0091,-5.0097,-5.0164,-5.0217,-5.0248,-5.031,-5.0343,-5.0413,-5.039,-5.0417,-5.0467,-5.0504,-5.0569,-5.0496,-5.0587,-5.059,-5.0573,-5.0697,-5.071,-5.0814,-5.0658,-5.0661,-5.0662,0,-4.9874,-4.9939,-5.0066,-5.0135,-5.0165,-5.0225,-5.0298,-5.0357,-5.0419,-5.0437,-5.0487,-5.0497,-5.0577,-5.0537,-5.0649,-5.06,-5.0638,-5.0662,-5.0667,-5.0677,-5.0632,-5.0713,-5.0847,-5.0864,-5.0686,-5.0684,-5.0682,0,-4.9938,-5.0056,-5.0149,-5.0182,-5.0264,-5.0306,-5.0342,-5.0401,-5.0446,-5.051,-5.054,-5.0611,-5.0651,-5.0706,-5.0735,-5.0703,-5.0846,-5.0807,-5.0865,-5.0864,-5.0895,-5.0893,-5.104,-5.0917,-5.0917,-5.0916,-5.0916,0,-5.0049,-5.0127,-5.0179,-5.0236,-5.0325,-5.0353,-5.044,-5.0475,-5.0528,-5.0592,-5.0601,-5.0661,-5.0695,-5.076,-5.0782,-5.0873,-5.089,-5.0908,-5.0914,-5.0909,-5.0907,-5.0936,-5.093,-5.0921,-5.092,-5.0919,-5.0918,0,-5.0136,-5.0173,-5.0275,-5.0346,-5.0365,-5.0428,-5.0488,-5.0544,-5.0575,-5.0656,-5.0677,-5.0725,-5.0802,-5.0837,-5.0931,-5.0947,-5.1051,-5.105,-5.1031,-5.1034,-5.109,-5.1085,-5.1262,-5.1288,-5.1145,-5.1146,-5.1147,0,-5.0205,-5.0266,-5.0344,-5.0389,-5.0427,-5.0497,-5.0545,-5.0575,-5.0624,-5.07,-5.0747,-5.0825,-5.0889,-5.1013,-5.1056,-5.1129,-5.1132,-5.1189,-5.1142,-5.1137,-5.1135,-5.1132,-5.114,-5.1197,-5.1199,-5.12,-5.1201,0,-5.0325,-5.0341,-5.0409,-5.0485,-5.0541,-5.0601,-5.066,-5.0696,-5.0736,-5.079,-5.0871,-5.0921,-5.1019,-5.1097,-5.1174,-5.121,-5.1213,-5.1215,-5.1233,-5.1229,-5.1217,-5.1227,-5.1057,-5.1211,-5.121,-5.1209,-5.1209,-5.1208,-5.0407,-5.0462,-5.0527,-5.0603,-5.0651,-5.0707,-5.0764,-5.0804,-5.0872,-5.0955,-5.0969,-5.1055,-5.1117,-5.1221,-5.126,-5.1328,-5.1315,-5.1339,-5.1346,-5.1352,-5.1357,-5.1204,-5.1342,-5.1342,-5.1341,-5.1341,-5.1341,0,-5.0529,-5.0572,-5.0641,-5.0726,-5.0786,-5.0784,-5.085,-5.0901,-5.0977,-5.1035,-5.1099,-5.1193,-5.1269,-5.132,-5.1397,-5.1442,-5.1446,-5.1461,-5.1459,-5.1469,-5.1363,-5.1342,-5.1458,-5.1458,-5.1458,-5.1458,-5.1458,-5.1458,-5.06,-5.0695,-5.072,-5.084,-5.0881,-5.0967,-5.1006,-5.1058,-5.1105,-5.1209,-5.1274,-5.1306,-5.1362,-5.1444,-5.1515,-5.1527,-5.1557,-5.1574,-5.1586,-5.1487,-5.1475,-5.1464,-5.1444,-5.1579,-5.1579,-5.1686,-5.1687,-5.1688]}]]